Location: downtown San Diego
(32.7310°N, 117.1990°W)
Time: 15:00:19
(UTC-07:00)

USA 215 - Pass Details

Date: 14 June 2018
Orbit: 1100 x 1108 km, 123.0° (Epoch: 12 August)

Event Time Altitude Azimuth Distance (km) Brightness Sun altitude
Exits shadow 21:17:21 11° 169° (SSE) 2,875 5.0 -14.6°
Maximum altitude 21:23:06 38° 234° (SW) 1,620 4.2 -15.5°
Drops below altitude 10° 21:29:04 10° 301° (WNW) 2,958 6.8 -16.4°
Sets 21:31:46 0° 309° (NW) 3,920 8.0 -16.8°
